{"data":{"norad_id":65823,"epoch":"2026-09-20T06:52:23.269152Z","epoch_age_seconds":124562,"freshness":"FRESH","line1":"1 65823U 25221A   26263.28638043  .00025393  00000+0  75995-3 0  9998","line2":"2 65823  53.1583 262.5820 0001373  90.6833 269.4327 15.34407350 55903","mean_motion":15.3440735,"eccentricity":0.0001373,"inclination_deg":53.1583,"raan_deg":262.582,"arg_perigee_deg":90.6833,"mean_anomaly_deg":269.4327,"bstar":0.00075995,"rev_number":5590,"period_min":93.847308539026,"perigee_km":461.74215017979,"apogee_km":463.62063891094,"semimajor_km":6840.8183945454,"source":"CELESTRAK","updated_at":"2026-09-21T09:00:35.718784Z"}}